Location: Unspecified
(0.0000°N, 0.0000°E)
Time: 02:52:10
(UTC+01:00)

Hubble Space Telescope - Pass Details

Date: 28 October 2021
Orbit: 535 x 538 km, 28.5° (Epoch: 27 November)

Event Time Altitude Azimuth Distance (km) Brightness Sun altitude
Exits shadow 07:03:11 - 248° (WSW) 1,929 3.1 -9.9°
Reaches altitude 10° 07:03:50 10° 241° (WSW) 1,782 3.0 -9.7°
Maximum altitude 07:06:04 14° 208° (SSW) 1,533 3.0 -9.2°
Drops below altitude 10° 07:08:19 10° 174° (S) 1,785 3.7 -8.6°
Sets 07:11:30 0° 149° (SSE) 2,677 5.1 -7.9°
